Location: A�t Lahcen
(32.8243°N, 5.4246°W)
Time: 00:49:42
(UTC+00:00)

Cosmos 2034 Rocket - Pass Details

Date: 27 January 2021
Orbit: 957 x 1001 km, 82.9° (Epoch: 26 February)

Event Time Altitude Azimuth Distance (km) Brightness Sun altitude
Rises 04:43:41 0° 174° (S) 3,707 7.1 -32.8°
Reaches altitude 10° 04:46:13 10° 171° (S) 2,762 6.5 -32.3°
Maximum altitude 04:52:28 61° 92° (E) 1,123 4.4 -31.0°
Drops below altitude 10° 04:58:43 10° 14° (NNE) 2,768 6.5 -29.6°
Sets 05:01:16 0° 11° (N) 3,716 7.1 -29.1°
